Location: Bedertsch
(49.8086°N, 14.7184°E)
Time: 11:29:11
(UTC+00:00)

Daily predictions for brighter satellites

Satellite Brightness Start Highest point End
(mag) Time Altitude Azimuth Time Altitude Azimuth Time Altitude Azimuth
BREEZE-M DEB (TANK) 3.6 18:55:47 10° SSW 18:59:05 45° SE 19:09:09 10° ENE
COSMOS 2455 4.0 19:04:58 10° SSE 19:09:16 21° ESE 19:13:35 10° ENE
GEOS 3 Rocket 3.8 19:05:01 10° NE 19:10:07 52° SE 19:15:05 10° SSW
ATLAS 2AS CENTAUR R/B 4.3 19:07:33 10° WSW 19:15:03 45° NNW 19:22:17 10° NE
Meteor 2-3 Rocket 3.8 19:09:33 10° S 19:15:14 73° E 19:21:00 10° NNE
SAR-Lupe-1 4.1 19:11:40 10° NNE 19:15:16 89° E 19:18:51 10° SSW
Cosmos 2082 Rocket 4.1 19:10:46 10° WSW 19:15:59 37° NW 19:21:16 10° NNE
Cosmos 220 Rocket 4.1 19:11:50 10° NNW 19:16:14 88° ENE 19:20:38 10° SSE
Cosmos 292 Rocket 4.4 19:11:59 10° NNW 19:16:34 43° ENE 19:21:09 10° SE
Cosmos 2360 Rocket 2.3 19:10:58 10° NNW 19:16:37 70° ENE 19:22:15 10° SE
SAR-Lupe-4 3.5 19:13:56 10° NNE 19:17:32 83° ESE 19:21:08 10° SSW
NOSS 2-1 (C) 3.2 19:14:32 10° SSW 19:17:39 42° SE 19:20:53 10° NE
Ariane Rocket 3.1 19:13:46 10° SSE 19:18:51 83° WSW 19:23:57 10° NNW
Terra 3.6 19:16:43 10° E 19:19:49 17° ENE 19:22:55 10° NNE
Cosmos 1328 Rocket 4.1 19:15:35 10° N 19:19:52 44° ENE 19:24:05 10° SSE
Cosmos 2098 Rocket 4.0 19:17:00 10° SSW 19:20:32 48° WNW 19:24:59 10° N
Helios 1A Rocket 4.2 19:17:49 10° S 19:21:40 41° W 19:25:35 10° NNW
NOSS 3-1 (A) 4.4 19:15:11 10° NW 19:22:10 55° NE 19:30:25 10° ESE
Cosmos 1174 3.2 19:20:58 10° NNW 19:23:58 66° NE 19:26:57 10° SE
NOSS 2-1 (D) 2.9 19:22:14 10° SSW 19:25:27 52° SE 19:28:44 10° NE
SPOT 3 Rocket 3.7 19:20:23 10° SSE 19:25:33 66° ENE 19:30:44 10° N
Cosmos 1766 Rocket 3.8 19:22:35 10° SSE 19:26:47 47° E 19:30:58 10° NNE
Cosmos 1624 Rocket 4.0 19:23:26 10° NNW 19:28:41 83° ENE 19:33:56 10° SSE
Meteor 2-6 Rocket 4.4 19:23:31 10° N 19:28:47 51° ENE 19:34:01 10° SSE
Cosmos 2151 3.6 19:24:39 10° SSW 19:28:52 62° WNW 19:33:09 10° N
Gblst 52 Del rocket 4.4 19:25:15 10° WNW 19:31:03 90° NW 19:37:38 10° ESE
Cosmos 1553 Rocket 4.2 19:25:30 10° N 19:31:30 56° ENE 19:37:30 10° SSE
Cosmos 2084 3.4 19:27:28 10° SW 19:31:33 87° NW 19:35:45 10° NE
Resurs 01 Rocket 1.7 19:29:01 10° SSE 19:33:28 87° WSW 19:37:58 10° NNW
Cosmos 1420 Rocket 4.2 19:28:25 10° NNW 19:33:45 64° ENE 19:38:52 11° SE
Cosmos 1812 2.8 19:36:29 10° N 19:40:20 61° ENE 19:44:02 11° SSE
Cosmos 1782 3.2 19:38:30 10° NNW 19:42:30 65° W 19:46:26 10° S
Landsat 7 4.0 19:39:10 10° S 19:43:55 78° WSW 19:48:43 10° NNW
ERS-1 Rocket 3.8 19:40:14 12° SE 19:44:24 36° ENE 19:49:00 10° N
Cosmos 1862 3.7 19:41:04 10° SSE 19:44:49 42° E 19:48:36 10° NNE
Cosmos 1833 4.3 19:42:56 10° S 19:48:34 56° ESE 19:54:12 10° NE
SL-27 R/B 2.4 19:45:49 10° SSW 19:49:23 71° ESE 19:52:59 10° NNE
Cosmos 2333 Rocket 2.3 19:46:10 10° NNW 19:51:50 66° ENE 19:56:33 15° SE
BREEZE-M DEB (TANK) 3.8 19:50:42 10° W 19:53:35 29° SSW 19:58:28 13° SSE
Cosmos 2322 Rocket 3.2 19:48:22 10° NW 19:53:38 42° WSW 19:58:52 10° S
Cosmos 2237 Rocket 3.8 19:49:10 10° NNW 19:53:49 25° NE 19:58:28 10° E
Cosmos 2322 3.9 19:49:09 10° NNW 19:54:53 66° ENE 19:59:33 16° SE
SPOT 5 3.3 19:52:44 15° SE 19:55:59 41° ENE 20:00:16 10° N
USA 234 4.2 19:49:51 10° ENE 19:56:05 48° N 20:02:19 10° WNW
ARIANE 5 R/B 3.0 19:54:19 15° SE 19:57:45 50° ENE 20:02:02 10° N
Cosmos 1452 Rocket 3.8 19:55:01 10° NNW 20:00:12 56° ENE 20:04:09 17° SE
BREEZE-M R/B 3.8 19:57:49 10° SSW 20:01:23 21° SSE 20:02:47 17° ESE
Cosmos 1500 Rocket 4.3 20:03:07 17° SSE 20:05:55 35° E 20:09:59 10° NNE
Cosmos 2219 Rocket 2.3 20:00:23 10° NNW 20:05:59 69° ENE 20:10:11 18° SE
S3M 4.1 19:59:40 10° N 20:06:05 68° ENE 20:11:31 15° SSE
Cosmos 2056 Rocket 4.3 20:05:17 10° NNW 20:10:24 48° WSW 20:15:24 10° S
ATLAS 5 CENTAUR R/B 2.4 20:07:00 10° NW 20:12:22 73° NE 20:17:08 18° SE
Meteor 1-27 Rocket 4.0 20:09:14 10° N 20:14:52 59° ENE 20:18:58 19° SSE
Meteor 2-14 Rocket 4.5 20:11:33 10° S 20:17:42 90° W 20:23:52 10° N
Sich 1 4.5 20:16:31 19° ESE 20:17:50 21° E 20:21:06 10° NE
Spot 2 Rocket 3.5 20:14:03 16° SSE 20:18:14 88° WSW 20:23:23 10° NNW
SPOT 1/Viking Rocket 4.0 20:14:27 10° S 20:19:34 59° W 20:24:46 10° NNW
USA 245 3.6 20:16:54 14° S 20:20:23 62° WSW 20:23:49 10° NNW
Cosmos 1408 Rocket 3.4 20:17:01 10° S 20:21:20 86° ESE 20:25:41 10° N
NOSS 2-1 (E) 3.9 20:20:35 10° WSW 20:23:46 48° NW 20:27:14 10° NE
Cosmos 1655 Rocket 4.1 20:19:07 11° S 20:25:09 68° E 20:31:31 10° NNE
CZ-2C R/B 3.7 20:20:44 10° NNE 20:25:15 82° WNW 20:29:41 10° SSW
SL-16 R/B 4.2 20:21:56 10° N 20:25:57 19° NE 20:29:56 10° E
SL-16 R/B 4.4 20:22:50 10° WNW 20:26:41 19° W 20:30:32 10° SW
GP-B 4.1 20:24:08 10° N 20:28:23 46° W 20:32:37 10° SSW
Cosmos 1743 Rocket 3.7 20:25:40 21° SSE 20:28:26 56° E 20:32:47 10° NNE
CARTOSAT-1 3.9 20:29:08 18° S 20:32:16 64° WSW 20:36:35 10° NNW
Cosmos 494 Rocket 4.5 20:31:20 23° SSE 20:33:53 39° ESE 20:38:39 10° NE
NOSS 3-1 (C) 4.4 20:27:17 10° NW 20:34:34 58° SW 20:40:55 19° SSE
Lacrosse 5 2.6 20:33:36 19° S 20:36:19 30° SE 20:40:44 10° ENE
IRIDIUM 114 4.5 20:40:14 10° N 20:45:25 59° E 20:48:02 28° SSE
CZ-4C R/B 4.0 20:41:20 10° NW 20:47:23 36° NNE 20:54:31 10° E
COSMOS 2487 2.4 20:45:40 20° SSW 20:47:55 79° WNW 20:51:19 10° NNE
COSMOS 2428 2.8 20:44:58 10° NNW 20:50:39 72° WSW 20:53:52 27° SSE
Cosmos 468 4.5 20:47:12 18° S 20:51:00 66° ESE 20:56:13 10° NNE
CZ-4B DEB 4.2 20:50:28 50° SE 20:51:04 65° ENE 20:54:12 10° N
USA 229 DEB 4.1 20:45:36 10° NW 20:52:50 67° SW 20:57:36 25° SSE
USA 229 4.1 20:45:42 10° NW 20:52:56 67° SW 20:57:42 25° SSE
COSMOS 2455 2.9 20:48:28 10° SW 20:54:30 84° NW 21:00:34 10° NE
IRIDIUM 103 4.3 20:49:22 10° N 20:54:36 70° E 20:57:11 30° SSE
Terra 1.9 20:54:30 28° S 20:57:00 78° WSW 21:01:48 10° NNW
Cosmos 2360 Rocket 4.1 20:55:51 10° NW 21:00:04 22° WSW 21:04:19 10° SSW
Cosmos 2084 Rocket 3.4 20:56:46 10° NW 21:00:58 78° SW 21:02:26 40° SSE
Cosmos 1048 Rocket 3.8 20:59:48 17° SSW 21:03:47 85° ESE 21:08:56 10° NNE
Cosmos 972 Rocket 4.0 21:01:59 13° SSW 21:06:39 78° WNW 21:11:35 10° NNE
Cosmos 1862 Rocket 4.5 21:03:06 10° N 21:07:05 34° ENE 21:08:11 29° ESE
Cosmos 2219 4.3 21:06:24 25° ESE 21:07:07 26° ESE 21:11:47 10° NE
USA 102 3.5 21:08:33 66° NW 21:08:33 66° NW 21:56:44 10° NW
USA 102 3.5 21:08:33 66° NW 21:08:33 66° NW 21:16:14 10° NNW
Resurs 01 Rocket 4.4 21:09:17 10° WSW 21:10:39 11° W 21:12:02 10° WNW
Cosmos 489 Rocket 4.4 21:06:25 17° SSW 21:11:26 79° ESE 21:17:49 10° NNE
IRIDIUM 106 4.3 21:07:37 10° N 21:12:52 84° W 21:15:23 32° S
NOSS 3-1 (A) 4.4 21:06:06 10° NW 21:13:23 55° WSW 21:18:16 26° S
Cosmos 1302 Rocket 4.2 21:10:03 10° NNW 21:15:14 60° ENE 21:17:19 35° SE
Cosmos 2266 Rocket 4.4 21:09:42 13° SSW 21:15:18 63° WNW 21:21:35 10° N
Cosmos 1707 Rocket 3.5 21:11:03 10° N 21:15:26 70° ENE 21:16:40 45° SSE
H-2A R/B 3.4 21:11:42 10° NNE 21:15:55 69° ESE 21:17:03 46° S
TSX-5 4.2 21:15:29 45° SE 21:15:58 47° ESE 21:20:44 10° NE
Meteor 1-19 Rocket 4.2 21:10:45 10° N 21:16:19 70° ENE 21:18:31 36° SSE
Okean 1 3.4 21:12:35 10° N 21:16:34 61° ENE 21:17:20 50° SE
Cosmos 1980 3.7 21:11:26 10° NNW 21:17:09 79° ENE 21:19:35 36° SE
NOSS 2-2 (D) 4.3 21:13:56 10° NW 21:19:01 81° NE 21:22:27 30° SE
ERS-1 Rocket 4.1 21:20:14 19° SSW 21:23:12 35° W 21:27:49 10° NNW
Cosmos 1500 3.7 21:24:25 43° E 21:24:28 43° E 21:28:09 10° NNE
Cosmos 2228 Rocket 3.9 21:20:45 10° NNW 21:24:59 45° W 21:26:53 28° SSW
Cosmos 1269 Rocket 4.4 21:30:12 40° SE 21:31:11 44° ESE 21:36:13 10° NE
Cosmos 2297 Rocket 2.5 21:31:26 39° SSE 21:32:47 47° ESE 21:38:12 10° NE
Cosmos 1805 Rocket 4.1 21:31:36 28° SW 21:33:42 56° WNW 21:38:04 10° N
SPOT 5 4.4 21:31:58 17° SW 21:34:16 25° W 21:38:00 10° NW
BREEZE-M DEB (TANK) 3.2 21:31:14 10° W 21:34:36 30° WSW 21:34:36 30° WSW
NOSS 0 Rocket 4.2 21:29:12 10° NW 21:35:19 60° WSW 21:37:53 35° S
Cosmos 972 4.5 21:32:40 28° SSW 21:35:34 84° WNW 21:40:37 10° NNE
Cosmos 2333 Rocket 3.9 21:31:13 10° NW 21:35:37 24° WSW 21:38:33 16° SW
USA 234 3.8 21:32:10 10° E 21:38:33 57° NNE 21:44:57 10° WNW
Cosmos 2237 Rocket 2.2 21:32:50 10° NNW 21:38:33 80° WSW 21:40:34 42° SSE
Meteor 1-20 Rocket 4.4 21:40:21 27° SSW 21:43:31 70° WNW 21:49:17 10° N
Cosmos 2227 Rocket 2.5 21:44:49 41° SE 21:45:47 45° ESE 21:51:09 10° NE
ALOS 2 3.3 21:45:45 36° E 21:46:39 41° ENE 21:50:48 10° N
Cosmos 2219 Rocket 3.9 21:45:12 10° NW 21:49:24 22° WSW 21:51:54 17° SW
Cosmos 1745 Rocket 4.2 21:50:35 39° SE 21:52:38 55° E 21:58:47 10° NNE
Meteor 1-14 Rocket 4.2 21:51:39 45° SSE 21:53:16 65° E 21:58:56 10° NNE
Sich 1 4.0 21:53:28 28° SW 21:55:13 43° WNW 21:59:21 10° N
ATLAS 5 CENTAUR R/B 3.6 21:52:00 10° WNW 21:56:51 29° WSW 21:58:39 25° SW
BREEZE-M DEB (TANK) 4.3 21:47:07 10° WSW 21:59:51 53° S 22:02:13 29° ESE
Nadezhda 1 Rocket 4.0 21:57:57 10° N 22:04:24 82° E 22:06:40 43° SSE
Cosmos 1536 4.5 22:05:02 23° E 22:05:02 23° E 22:07:54 10° NE
Cosmos 44 4.0 22:05:46 10° NW 22:11:00 53° NE 22:13:02 32° ESE
SL-16 R/B 2.3 22:05:25 10° NNW 22:11:07 72° ENE 22:12:56 44° SE
Cosmos 1633 Rocket 3.4 22:10:51 48° SW 22:11:45 59° WNW 22:16:04 10° N
Cosmos 1470 Rocket 3.3 22:14:08 75° S 22:14:29 88° E 22:18:51 10° N
Cosmos 1666 2.6 22:15:50 82° NNE 22:15:50 82° NNE 22:19:32 10° N
Lacrosse 5 2.0 22:13:54 10° WSW 22:18:58 74° NNW 22:24:04 10° NE
Cosmos 1933 Rocket 3.5 22:20:15 66° ESE 22:20:29 67° E 22:24:55 10° NNE
Timation 1 Rocket 4.3 22:21:27 49° S 22:22:58 68° ESE 22:28:57 10° NE
Cosmos 1743 4.4 22:28:33 22° ENE 22:28:33 22° ENE 22:31:04 10° NE
Cosmos 1340 Rocket 2.7 22:28:39 78° NE 22:28:39 78° NE 22:32:25 10° NNE
Cosmos 2251 Rocket 3.9 22:34:43 44° ESE 22:35:08 45° ESE 22:40:12 10° NE
Terra 4.3 22:34:23 10° W 22:35:34 11° W 22:36:44 10° WNW
CZ-4C R/B 2.9 22:29:45 10° NW 22:36:50 86° NE 22:41:11 31° SE
Meteor 2-4 Rocket 4.3 22:33:27 10° NNW 22:39:07 48° W 22:40:46 38° SW
Cosmos 1943 4.4 22:33:58 10° NNW 22:39:16 37° NE 22:42:41 20° ESE
CZ-3B R/B 3.7 22:35:15 10° WNW 22:39:48 24° WSW 22:39:48 24° WSW
Timation 2 Rocket 3.8 22:39:27 48° SSW 22:41:17 82° ESE 22:47:33 10° NNE
Cosmos 1992 Rocket 4.0 22:37:19 10° NNW 22:42:31 64° WSW 22:43:15 56° SSW
ATLAS CENTAUR R/B 3.3 22:44:53 17° E 22:44:53 17° E 22:46:20 10° ENE
Cosmos 1544 3.8 22:44:14 46° NE 22:44:14 46° NE 22:47:03 10° NNE
Cosmos 2242 Rocket 3.5 22:39:55 10° NNW 22:44:21 74° W 22:44:34 72° SW
USA 267 3.2 22:39:46 10° ENE 22:46:14 59° SE 22:48:10 43° SSW
Cosmos 2219 3.6 22:48:18 33° SW 22:50:52 62° WNW 22:56:37 10° NNE
Cosmos 1066 Rocket 4.2 22:48:08 10° NNW 22:54:02 83° W 22:55:26 54° S
ATLAS 2AS CENTAUR R/B 4.3 22:54:11 10° NW 23:01:04 36° NNE 23:07:30 10° E
Cosmos 1703 Rocket 4.0 22:57:00 10° NNW 23:01:13 49° W 23:01:20 49° W
Cosmos 2082 3.6 23:01:12 54° SSW 23:02:35 86° ESE 23:08:22 10° NNE
NOSS 3-3 (A) 4.3 23:02:53 42° SE 23:03:31 44° ESE 23:09:37 10° NE
NOSS 3-3 (C) 4.3 23:03:01 42° SE 23:03:37 43° ESE 23:09:42 10° NE
Cosmos 1378 4.2 23:01:03 10° NNW 23:03:58 36° WNW 23:03:58 36° WNW
Cosmos 909 Rocket 4.4 23:02:47 30° SW 23:06:28 78° NW 23:14:40 10° NE
Meteor 1-11 Rocket 3.6 23:05:20 56° SSW 23:06:33 83° WNW 23:12:08 10° N
Okean 1-7 3.8 23:05:35 10° NNW 23:09:33 40° W 23:09:33 40° W
Cosmos 1733 Rocket 4.1 23:09:45 34° E 23:09:59 35° E 23:14:01 10° NNE
Cosmos 2181 Rocket 3.9 23:04:40 10° N 23:11:00 85° W 23:12:46 50° S
Cosmos 1975 4.5 23:12:19 24° E 23:12:21 24° E 23:15:38 10° NE
Cosmos 1140 Rocket 4.1 23:16:10 40° ESE 23:16:42 41° ESE 23:21:35 10° NE
Cosmos 2297 Rocket 3.4 23:13:12 17° WSW 23:16:59 37° NW 23:22:14 10° NNE
Nimbus 7 Rocket 4.4 23:11:01 10° NNE 23:17:02 77° WNW 23:18:53 46° SW
Meteor 1-23 Rocket 4.2 23:14:30 10° NNW 23:20:16 77° W 23:21:35 54° S
SL-16 R/B 4.1 23:15:35 10° ESE 23:20:44 30° ENE 23:25:58 10° N
Cosmos 2221 Rocket 3.7 23:16:36 10° N 23:21:11 67° ENE 23:21:41 61° ESE
USA 234 3.1 23:18:04 31° SE 23:21:28 75° SW 23:28:03 10° WNW
Cosmos 2237 Rocket 4.2 23:18:48 10° WNW 23:21:41 14° W 23:22:23 14° WSW
ALOS 2 4.1 23:23:09 25° W 23:23:09 25° W 23:26:46 10° NW
Cosmos 614 Rocket 3.9 23:23:41 59° SW 23:24:41 84° WNW 23:29:58 10° NNE
Cosmos 1461 3.2 23:27:18 61° W 23:27:54 70° NW 23:32:17 10° NE
Cosmos 1709 Rocket 4.4 23:26:19 37° SW 23:28:37 55° WNW 23:34:54 10° N
Cosmos 2227 Rocket 3.3 23:26:37 20° WSW 23:29:56 38° NW 23:35:15 10° NNE
SL-24 R/B - RUBIN 2 3.6 23:27:13 10° NW 23:32:20 80° SW 23:32:45 72° S
Nadezhda 3 Rocket 4.4 23:27:12 10° N 23:33:29 58° ENE 23:36:10 34° SE
Cosmos 2263 Rocket 2.3 23:33:28 51° SSE 23:34:33 61° ESE 23:40:11 10° NE
Cosmos 2344 3.8 23:34:40 38° SSE 23:36:54 49° ESE 23:44:18 10° NE
Cosmos 1603 3.6 23:34:08 10° NNW 23:39:48 88° ENE 23:41:31 47° SSE
Cosmos 1536 3.9 23:40:44 35° W 23:40:55 35° WNW 23:44:41 10° N
PSLV R/B 3.7 23:37:08 10° N 23:41:54 73° WNW 23:42:34 62° SW
Okean 2 3.9 23:38:08 10° N 23:42:14 51° ENE 23:42:44 48° ESE
Cosmos 1842 3.2 23:40:32 10° N 23:44:12 79° N 23:44:12 79° N
Cosmos 1869 Rocket 4.4 23:47:06 36° W 23:47:41 38° WNW 23:51:53 10° N
ASTEX 1 3.3 23:46:47 60° SSE 23:47:42 85° E 23:52:41 10° N
ARGOS Delta rocket 3.8 23:43:46 10° NNE 23:48:15 61° E 23:48:43 57° SE
Thor Agena Rocket 3.7 23:46:23 10° N 23:51:22 60° WNW 23:52:34 46° WSW
Meteor 2-9 Rocket 4.1 23:50:41 52° SSE 23:51:57 72° E 23:57:25 10° NNE
Cosmos 44 4.4 23:47:26 10° NW 23:51:25 31° W 23:51:25 31° W
YAOGAN 11 4.3 23:52:26 52° SE 23:53:21 67° ENE 23:57:47 10° N
SL-16 R/B 3.6 23:50:27 10° NW 23:54:40 22° W 23:54:47 22° WSW
